Terug naar catalogus

RAPIDEYE 3

ActiefWetenschapSSO
NORAD 33315·PAYLOAD·🇩🇪 Germany

Gelanceerd Aug 29, 2008 vanaf Baikonur Cosmodrome

Loading…

Volgende Passages (komende 24 uur)

TLE

VersSource: Space-Track

Epoch: Sep 14, 2026, 12:56 UTC

1 33315U 08040D   26257.53956087  .00001360  00000-0  94305-4 0  9997
2 33315  97.3789 284.0687 0012285  91.2153 269.0483 15.07158276979733

Volg RAPIDEYE 3 in realtime met AllMySat

Download on the App Store